Weather History for KPMP - August, 2013

Change the Weather History Date:

Thursday, August 29, 2013

  Actual Average (KFLL) Record (KFLL)
Temperature  
Mean Temperature 81 °F 84 °F  
Max Temperature 88 °F 90 °F 97 °F (1964)
Min Temperature 75 °F 78 °F 69 °F (1930)
Degree Days  
Heating Degree Days 0 0  
Month to date heating degree days 0  
Since 1 June heating degree days 0  
Since 1 July heating degree days 0  
Cooling Degree Days 16 19  
Month to date cooling degree days 570  
Year to date cooling degree days 3129  
Since 1 June cooling degree days 1711  
Growing Degree Days 31 (Base 50)    
Moisture  
Dew Point 74 °F    
Average Humidity 76    
Maximum Humidity 90    
Minimum Humidity 65    
Precipitation  
Precipitation 0.00 in 0.27 in 4.79 in (1953)
Month to date precipitation 6.89  
Year to date precipitation 40.52  
Snow  
Snow 0.00 in - - ()
Month to date snowfall  
Since 1 June snowfall  
Since 1 July snowfall  
Snow Depth -    
Sea Level Pressure  
Sea Level Pressure 30.00 in    
Wind  
Wind Speed 6 mph (East)    
Max Wind Speed 14 mph    
Max Gust Speed -    
Visibility 10 miles    
Events      
T = Trace of Precipitation, MM = Missing Value Source: NWS Daily Summary

Daily Weather History Graph

Daily Weather History Graph

Search for Another Location

Airport or City:

Trip Planner

Search our weather history database for the weather conditions in past years. The results will help you decide how hot, cold, wet, or windy it might be!

Date:

Astronomy

Aug. 29, 2013 Rise Set
Actual Time 6:59 AM EDT 7:42 PM EDT
Civil Twilight 6:35 AM EDT 8:06 PM EDT
Nautical Twilight 6:07 AM EDT 8:34 PM EDT
Astronomical Twilight 5:39 AM EDT 9:02 PM EDT
Moon 1:06 AM EDT 2:53 PM EDT
Length of Visible Light 13h 30m
Length of Day
12h 43m
Last Quarter, 38% of the Moon is Illuminated
Aug 29
Last Quarter
Sep 5
New
Sep 12
First Quarter
Sep 19
Full
Sep 26
Last Quarter

Hourly Weather History & Observations

Time (EDT) Temp. Heat Index Dew Point Humidity Pressure Visibility Wind Dir Wind Speed Gust Speed Precip Events Conditions
12:53 AM 82.0 °F 87.4 °F 73.0 °F 74% 30.03 in 10.0 mi ESE 6.9 mph - N/A   Unknown
1:53 AM 79.0 °F - 73.9 °F 84% 30.01 in 10.0 mi Calm Calm - N/A   Unknown
2:53 AM 78.1 °F - 73.9 °F 87% 30.01 in 10.0 mi Calm Calm - N/A   Unknown
3:53 AM 78.1 °F - 73.9 °F 87% 30.00 in 10.0 mi NNW 5.8 mph - N/A   Unknown
4:53 AM 77.0 °F - 73.9 °F 90% 29.99 in 10.0 mi NNW 3.5 mph - N/A   Unknown
5:53 AM 75.9 °F - 72.0 °F 87% 29.99 in 10.0 mi North 8.1 mph - N/A   Unknown
6:53 AM 75.9 °F - 72.0 °F 87% 30.00 in 10.0 mi Calm Calm - N/A   Unknown
7:53 AM 77.0 °F - 72.0 °F 84% 30.02 in 10.0 mi North 3.5 mph - N/A   Partly Cloudy
8:53 AM 82.0 °F 87.4 °F 73.0 °F 74% 30.03 in 10.0 mi NNE 4.6 mph - N/A   Unknown
9:53 AM 84.9 °F 92.1 °F 73.9 °F 69% 30.03 in 10.0 mi NE 4.6 mph - N/A   Unknown
10:53 AM 86.0 °F 95.1 °F 75.0 °F 70% 30.03 in 10.0 mi East 9.2 mph - N/A   Unknown
11:53 AM 86.0 °F 95.1 °F 75.0 °F 70% 30.04 in 10.0 mi ENE 10.4 mph - N/A   Scattered Clouds
12:53 PM 86.0 °F 95.1 °F 75.0 °F 70% 30.03 in 10.0 mi East 10.4 mph - N/A   Scattered Clouds
1:53 PM 86.0 °F 96.0 °F 75.9 °F 72% 30.01 in 10.0 mi East 9.2 mph - N/A   Scattered Clouds
2:53 PM 87.1 °F 97.3 °F 75.9 °F 69% 29.99 in 10.0 mi ESE 9.2 mph - N/A   Scattered Clouds
3:53 PM 87.1 °F 95.4 °F 73.9 °F 65% 29.97 in 10.0 mi East 9.2 mph - N/A   Scattered Clouds
4:53 PM 86.0 °F 93.8 °F 73.9 °F 67% 29.97 in 10.0 mi East 13.8 mph - N/A   Scattered Clouds
5:53 PM 86.0 °F 95.1 °F 75.0 °F 70% 29.97 in 10.0 mi ESE 8.1 mph - N/A   Scattered Clouds
6:53 PM 84.9 °F 92.1 °F 73.9 °F 69% 29.95 in 10.0 mi ESE 10.4 mph - N/A   Scattered Clouds
7:53 PM 84.0 °F 91.2 °F 73.9 °F 72% 29.95 in 10.0 mi SE 8.1 mph - N/A   Unknown
8:53 PM 82.9 °F 89.4 °F 73.9 °F 74% 29.98 in 10.0 mi SE 5.8 mph - N/A   Partly Cloudy
9:53 PM 82.9 °F 89.4 °F 73.9 °F 74% 29.99 in 10.0 mi SSE 4.6 mph - N/A   Unknown
10:53 PM 82.9 °F 89.4 °F 73.9 °F 74% 30.01 in 10.0 mi SSE 4.6 mph - N/A   Unknown
11:53 PM 82.0 °F 88.6 °F 75.0 °F 79% 30.00 in 10.0 mi South 3.5 mph - N/A   Unknown